Regional Weather Roundup
Issued by NWS Newport/Morehead, NC

Current Version | Previous Version | Graphics & Text | Print | Product List | Glossary Off
Versions: 1 2 3 4 5 6 7 8 9 10 11 12 13 14 15 16 17 18 19 20 21 22 23 24 25 26 27 28 29 30 31 32 33 34 35 36 37 38 39 40 41 42 43 44 45 46 47 48 49 50

000
ASUS42 KMHX 250525
RWRMHX
WEATHER ROUNDUP FOR EASTERN NORTH CAROLINA
NATIONAL WEATHER SERVICE NEWPORT/MOREHEAD CITY NC
100 AM EDT SAT MAR 25 2017

NOTE: "FAIR" INDICATES FEW OR NO CLOUDS BELOW 12,000 FEET
WITH NO SIGNIFICANT WEATHER AND/OR OBSTRUCTIONS TO VISIBILITY

NCZ015>017-031-032-045>047-102-103-250600-
NORTH COAST

CITY           SKY/WX    TMP DP  RH WIND       PRES   REMARKS
EDENTON        CLEAR     59  51  73 SW8       30.35S
ELIZABETH CITY CLEAR     57  50  77 SW13      30.33S
KITTY HAWK     NOT AVBL
MANTEO         CLEAR     57  50  78 SW14      30.35F

$$

NCZ045>047-081-094-103-104-250600-
CENTRAL COAST

CITY           SKY/WX    TMP DP  RH WIND       PRES   REMARKS
FRISCO         CLEAR     60  52  74 SW9       30.37F HAZE

$$

NCZ095-097-098-100-101-250600-
SOUTHERN COAST

CITY           SKY/WX    TMP DP  RH WIND       PRES   REMARKS
BEAUFORT       CLEAR     60  54  80 SW7       30.38F
CEDAR ISLAND   NOT AVBL
JACKSONVILLE   NOT AVBL
PINEY ISLAND   CLEAR    N/A N/A N/A SW9       30.37
WILMINGTON     CLEAR     56  51  84 S7        30.38F


$$

NCZ011>013-027>030-043-044-078>080-089-090>093-098-250600-
COASTAL PLAIN

CITY           SKY/WX    TMP DP  RH WIND       PRES   REMARKS
AHOSKIE          N/A     57  49  74 SW6       30.33S
CLINTON        CLEAR     57  50  79 CALM      30.38S
ELIZABETHTOWN  CLEAR     55  50  81 S3        30.37F
GOLDSBORO      CLEAR     57  51  79 S6        30.35S
GREENVILLE     CLEAR     57  50  77 SW7       30.36S
HAVELOCK       CLEAR     56  49  77 S6        30.38F
KENANSVILLE    CLEAR     57  48  72 CALM      30.37S
KINSTON        CLEAR     55  49  79 S6        30.37S
NEW BERN       CLEAR     56  51  84 SW7       30.38F
RICHLANDS      CLEAR     53  49  86 S5        30.38F
ROCKY MOUNT    CLEAR     56  49  77 S8        30.35S
WASHINGTON     CLEAR     57  49  75 SW7       30.36F
WHITEVILLE     CLEAR     53  49  87 CALM      30.37F

$$

AMZ130-135-150-152-154-156-158-170-250-252-270-ANZ085-086-088-633-658-670-250600-
MARINE OBSERVATIONS

STATION/POSITION TIME  TEMP    WIND        PRES    WAVE   SWELL
                       AIR SEA DIR/SP/G            HT/PER HT/PER
                 (UTC) (F)     (DEG/KT/KT) (MB)    (FT/S) (FT/S)
CHESAPEAKE LIGHT NOT AVBL
64 E VA BEACH    0450   54 51  220/ 16/ 17 1026.7    4/ 4   2/ 9
DUCK             0500   58 47  210/ 15/ 19 1026.5
2 E DUCK         0500      48                N/A     2/11   2/11
OREGON INLET     0500      54  210/ 15/ 17 1027.6
13E OREGON INLT  NOT AVBL
HATTERAS CG      0500   59 54  220/  9/ 11 1027.9
DIAMOND BUOY     0450   67 75  210/ 19/ 23 1028.6    4/11   2/11
CAPE LOOKOUT     0500   65     210/ 10/ 13 1028.4
BEAUFORT LAB     0500   60 53  230/  3/  7 1027.8
30 SE NEW RVR IN 0508   66     230/ 12/ 14 1028.9
30 SE NEW RVR IN 0513      66                N/A     3/ 8
27 SE WRIGHTSVLE 0508   64 62  180/ 10/ 14 1028.1
5 SE WRIGHTSVLE  0508   60 57  190/  8/ 10 1028.6
225 S CAPE HAT   0450   65 73  100/ 16/ 19 1029.7    5/ 8   3/11
41 SE CHARLESTON 0450   69 71  150/ 16/ 17 1027.8    5/ 7   3/ 7

$$




USA.gov is the U.S. government's official web portal to all federal, state and local government web resources and services.